Home   Weather   Siafa Washington Town   Past weeks
Flag for Liberia

Past Weather in Siafa Washington Town, Liberia — Yesterday and Last 2 Weeks

Now
75 °F

Passing clouds.


Feels Like: 74 °F
Forecast: 79 / 76 °F
Wind: No wind

Location: Roberts Field

Current Time: Jul 18, 2019 at 3:24:12 am

Latest Report: Jul 18, 2019 at 2:00 am


Visibility: N/A

Pressure: 29.98 "Hg

Humidity: 94%

Dew Point: 73 °F

Location of Siafa Washington TownLocation

Past Weather in Siafa Washington Town — Graph

°F

Siafa Washington Town Temperature Yesterday

Maximum temperature yesterday: 82 °F (at 9:00 am)
Minimum temperature yesterday: 75 °F (at 6:30 am)
Average temperature yesterday: 78 °F

High & Low Weather Summary for the Past Weeks

 TemperatureHumidityPressure
High86 °F (Jul 15, 3:00 pm)100% (Jul 7, 7:00 am)30.04 "Hg (Jul 7, 7:00 am)
Low72 °F (Jul 14, 7:00 am)70% (Jul 15, 12:00 pm)29.83 "Hg (Jul 3, 5:00 am)
Average78 °F90%29.95 "Hg
* Reported Jul 3 5:00 am — Jul 18 2:00 am, Siafa Washington Town. Weather by CustomWeather, © 2019

Note: Actual official high and low records may vary slightly from our data, if they occured in-between our weather recording intervals... More about our weather records

Advertising

Siafa Washington Town Weather History for the Previous 24 Hours

Scroll right to see more
 ConditionsComfort  
Time TempWeatherWind HumidityBarometerVisibility
2:00 am
Thu, Jul 18
75 °FPassing clouds.No wind94%29.98 "HgN/A
1:30 am75 °FPassing clouds.No wind94%29.98 "HgN/A
1:00 am77 °FPassing clouds.No wind89%29.98 "HgN/A
12:30 am77 °FPassing clouds.No wind89%30.01 "HgN/A
12:00 am77 °FPassing clouds.No wind89%30.01 "HgN/A
11:30 pm
Wed, Jul 17
77 °FPassing clouds.6 mph94%30.01 "HgN/A
11:00 pm77 °FPassing clouds.No wind94%30.01 "HgN/A
10:30 pm77 °FPassing clouds.No wind94%30.01 "HgN/A
10:00 pm77 °FPassing clouds.No wind94%30.01 "HgN/A
9:30 pm77 °FPassing clouds.No wind94%29.98 "HgN/A
9:00 pm77 °FPassing clouds.No wind94%29.98 "HgN/A
8:30 pm77 °FPassing clouds.No wind94%29.98 "HgN/A
8:00 pm77 °FPassing clouds.No wind94%29.95 "HgN/A
7:30 pm77 °FPartly sunny.No wind94%29.95 "HgN/A
7:00 pm79 °FPartly sunny.No wind84%29.95 "HgN/A
6:30 pm79 °FPartly sunny.3 mph84%29.95 "HgN/A
6:00 pm79 °FPartly sunny.3 mph84%29.92 "HgN/A
5:30 pm79 °FPartly sunny.3 mph84%29.95 "HgN/A
5:00 pm79 °FPartly sunny.5 mph84%29.95 "HgN/A
4:30 pm79 °FPartly sunny.6 mph84%29.95 "HgN/A
4:00 pm79 °FPartly sunny.7 mph89%29.95 "HgN/A
3:30 pm79 °FPartly sunny.8 mph89%29.95 "HgN/A
3:00 pm79 °FPartly sunny.8 mph89%29.95 "HgN/A
2:30 pm79 °FLight rain. Partly sunny.6 mph89%29.98 "Hg6 mi
2:00 pm82 °FPartly sunny.9 mph74%29.98 "HgN/A
1:30 pm82 °FPartly sunny.9 mph79%29.98 "HgN/A
1:00 pm82 °FPartly sunny.12 mph74%30.01 "HgN/A
12:30 pm81 °FPartly sunny.9 mph79%30.01 "HgN/A
12:00 pm81 °FPartly sunny.6 mph79%30.01 "HgN/A
11:30 am79 °FPartly sunny.7 mph84%30.04 "HgN/A
11:00 am81 °FPartly sunny.15 mph84%30.04 "HgN/A
10:30 am81 °FPartly sunny.12 mph79%30.04 "HgN/A
10:00 am81 °FPartly sunny.9 mph84%30.04 "HgN/A
9:30 am81 °FPartly sunny.12 mph74%30.04 "HgN/A
9:00 am82 °FPartly sunny.6 mph79%30.01 "HgN/A
8:30 am81 °FScattered clouds.8 mph79%30.01 "HgN/A
8:00 am77 °FScattered clouds.No wind89%30.01 "HgN/A
7:30 am75 °FPassing clouds.No wind94%29.98 "HgN/A
7:00 am75 °FPassing clouds.No wind89%29.98 "HgN/A
6:30 am75 °FPassing clouds.No wind89%29.98 "HgN/A
6:00 am77 °FPassing clouds.No wind94%29.95 "HgN/A
5:30 am77 °FPassing clouds.No wind89%29.95 "HgN/A
5:00 am77 °FPassing clouds.No wind89%29.95 "HgN/A
4:30 am77 °FPassing clouds.No wind89%29.95 "HgN/A
4:00 am77 °FPassing clouds.No wind89%29.95 "HgN/A
Weather by CustomWeather, © 2019

See weather overview